Regional Weather Roundup
Issued by NWS Charleston, SC

Current Version | Previous Version | Graphics & Text | Print | Product List | Glossary On
Versions: 1 2 3 4 5 6 7 8 9 10 11 12 13 14 15 16 17 18 19 20 21 22 23 24 25 26 27 28 29 30 31 32 33 34 35 36 37 38 39 40 41 42 43 44 45 46 47 48 49 50
000
ASUS42 KCHS 280712
RWRCHS

REGIONAL WEATHER ROUNDUP
NATIONAL WEATHER SERVICE CHARLESTON SC
300 AM EDT SUN MAY 28 2017

NOTE: "FAIR" INDICATES FEW OR NO CLOUDS BELOW 12,000 FEET WITH NO
SIGNIFICANT WEATHER AND/OR OBSTRUCTIONS TO VISIBILITY.

NOT ALL STATIONS ARE QUALITY CONTROLLED. USE DATA WITH CAUTION...
ESPECIALLY DEWPOINT OBSERVATIONS.

SCZ027-030-031-034>040-042>050-280800-
...SOUTHEAST SOUTH CAROLINA...

CITY           SKY/WX    TMP DP  RH WIND       PRES   REMARKS
N CHARLESTON   PTCLDY    73  69  87 SW7       29.91F
WATERFRONT PRK   N/A     75  73  93 VRB2      29.90F
JOHNS ISLAND   FAIR      75  73  94 S8        29.91F
PINOPOLIS        N/A     75  68  78 SW7       29.84S
MONCKS CORNER  FAIR      66  64  94 CALM      29.91F
SUMMERVILLE    FAIR      66  64  94 CALM      29.93S
BEAUFORT MCAS  PTCLDY    72  69  90 SW6       29.92F
BEAUFORT ARPT  NOT AVBL
HILTON HEAD IS NOT AVBL
WALTERBORO     MOSUNNY   68  61  77 CALM      29.93S
ALLENDALE      FAIR      70  63  78 CALM      29.91F

...SOUTHERN MIDLANDS AND PEE DEE...

CITY           SKY/WX    TMP DP  RH WIND       PRES   REMARKS
GEORGETOWN     FAIR      66  66 100 SW3       29.91F
KINGSTREE      FAIR      64  63  94 CALM      29.89F
ORANGEBURG     PTCLDY    69  62  78 S3        29.91F
BARNWELL       FAIR      72  64  78 CALM      29.92F
AIKEN          FAIR      70  63  78 W3        29.96S
MANNING        NOT AVBL
COLUMBIA       CLOUDY    73  60  63 CALM      29.89F
SUMTER         PTCLDY    74  60  61 SW7       29.87F
FLORENCE       MOCLDY    71  65  81 SW3       29.88F
MYRTLE BEACH   MOCLDY    73  68  84 SW9       29.90F
N MYRTLE BEACH PTCLDY    73  68  84 W5        29.88F

$$

GAZ063-065-086>088-099>101-113>116-118-119-134>141-150-280800-
...SOUTHEAST GEORGIA...

CITY           SKY/WX    TMP DP  RH WIND       PRES   REMARKS
SAVANNAH ARPT  MOCLDY    70  64  81 CALM      29.95S
HUNTER AAF     PTCLDY    69  69 100 CALM      29.92F
FORT STEWART   PTCLDY    67  63  87 CALM      29.93S
STATESBORO     CLOUDY    67  67 100 CALM      29.94S
SYLVANIA       CLOUDY    69  67  94 CALM      29.94S
CLAXTON        FAIR     N/A N/A N/A CALM      29.95S

...CSRA...CENTRAL AND FAR SOUTHEAST GEORGIA...

CITY           SKY/WX    TMP DP  RH WIND       PRES   REMARKS
THOMSON        CLOUDY    74  67  79 NW6       29.98F HAZE
AUGUSTA-BUSH   CLOUDY    69  65  86 CALM      29.91F
AUGUSTA-DANIEL CLOUDY    78  64  61 NW6       29.93F
SWAINSBORO     FAIR      68  64  88 CALM      29.95F
VIDALIA        CLEAR     70  64  83 SW3       29.96S
EASTMAN        FAIR      66  66 100 CALM      29.98F
HAZLEHURST     FAIR      72  68  86 CALM      29.96S
ALMA           CLOUDY    66  62  87 CALM      29.96S
WAYCROSS       CLEAR     71  69  93 CALM      29.96S
JESUP          FAIR      68  59  73 CALM      29.96S
BAXLEY         FAIR      68  68 100 CALM      29.96S
BRUNSWICK      CLEAR     72  66  83 W7        29.96F
SAINT SIMONS   CLOUDY    74  67  78 W7        29.95F

$$

SCZ027-028-034-036>038-045-046-048>050-GAZ119-141-280800-
...LAKE AND SUPPLEMENTAL COASTAL OBSERVATIONS...

STATION/POSITION TIME  TEMP    WIND        PRES    WAVE   SWELL
                       AIR SEA DIR/SP/G            HT/PER HT/PER/DIR
                 (UTC) (F)     (DEG/KT/KT) (MB)    (FT/S) (FT/S/D)
WINYAH BAY       0545   74     250/  4     1013.0
LAKE MURRAY      0620   76     270/  7/  9 1011.5F
ACE BASIN NERRS  NOT AVBL
FORT PULASKI     0642   74     250/  3/  5 1014.2F
SAPELO ISLAND    0600   75     220/  5     1014.0

$$

ANZ835-935-AMZ111-154-330-350-352-354-370-450-454-472-280800-
...C-MAN AND BUOY OBSERVATIONS...

STATION/POSITION TIME  TEMP    WIND        PRES    WAVE   SWELL
                       AIR SEA DIR/SP/G            HT/PER HT/PER/DIR
                 (UTC) (F)     (DEG/KT/KT) (MB)    (FT/S) (FT/S/D)
BUOY 41004       0650   76 75  220/ 14/ 17 1012.9F   3/ 7   2/140/ 7
BUOY 41008       0550   78 78  210/ 14/ 16 1014.1    3/ 4   2/110/ 8
FOLLY BEACH CMAN 0700   76     220/  9/ 12 1013.5F
CAPERS NEARSHORE 0608   80 77  230/ 14/ 19 1012.9F
FRIPP NEARSHORE  0608   78 78  230/ 12/ 16 1013.4F


STATION/POSITION TIME  TEMP    WIND        PRES    WAVE   SWELL
                       AIR SEA DIR/SP/G            HT/PER HT/PER/DIR
                 (UTC) (F)     (DEG/KT/KT) (MB)    (FT/S) (FT/S/D)
5E ST. MARYS GA  0630      78                N/A     2/ 4
FRYING PAN BUOY  0650   76 75  230/ 16/ 17 1012.1F   3/ 5
BUOY 41025       0650   76 77  240/ 10/ 10 1011.5F   3/ 6   3/220/ 6
CAPE LOOKOUT NC  0700   75     240/ 10/ 13 1010.9F
BUOY 41002       0550   76 77  240/ 12/ 14 1015.1    3/ 7   2/150/ 7
BUOY 41010       0650   79 79  180/ 10/ 14 1015.5F   2/ 8   2/110/ 8
ST AUGUSTINE FL  0700   71 77  240/  3/  5 1015.5F


$$




USA.gov is the U.S. government's official web portal to all federal, state and local government web resources and services.